Weather in Somerton

United Kingdom     51°03′15″N   2°44′04″W
temp.,
°C
wind,
m/s
gust,
m/s
humid.,
%
clouds,
%
prec.,
mm/h
press.,
hPa
HPBL,
m
7 august, sun
sun701:00+12nnw128343 0.0 102811
04:00+11nnw2286100 0.0 102717
07:00+12n12755 0.0 102864
10:00+21ne22440 0.0 1027714
13:00+26nnw22315 0.0 10251627
16:00+26nw53280 0.0 10241625
19:00+23nw55390 0.0 1024479
22:00+15nw22830 0.0 102512
8 august, mon
mon801:00+13nnw22881 0.0 102618
04:00+12n22781 0.0 102613
07:00+13n23735 0.0 102794
10:00+22ne33455 0.0 1027685
13:00+28nne21305 0.0 10261833
16:00+29wnw33260 0.0 10242272
19:00+26nw56310 0.0 1025701
22:00+17wnw12650 0.0 102711
9 august, tue
tue901:00+15nnw22810 0.0 102718
04:00+13nne11720 0.0 102810
07:00+14nne116822 0.0 102921
10:00+23ene114599 0.0 1028540
13:00+28nne22309 0.0 10281827
16:00+30n33225 0.0 10262424
19:00+28nw24272 0.0 1025820
22:00+17ssw22685 0.0 102718
10 august, wed
wed1001:00+15s117681 0.0 102711
04:00+14e1176100 0.0 102611
07:00+16ene226599 0.0 102655
10:00+25ene45363 0.0 1026882
13:00+30ene44235 0.0 10241980
16:00+32ese23205 0.0 10222306
19:00+29sse342717 0.0 10211082
22:00+19s22515 0.0 102213
11 august, thu
thu1101:00+18e22590 0.0 102223
04:00+15ne22601 0.0 102212
07:00+16nne23592 0.0 102274
10:00+26ne56350 0.0 1021645
13:00+33ene54220 0.0 10202159
16:00+35ene44180 0.0 10182945
19:00+30ssw44260 0.0 1018578
22:00+22sse11404 0.0 101911